Wind_Speed
43 42 43 43 42 42 42 41 41 38 37 35 36 37 37 38 38 38 38 39 39 39 40 41 42 42 43 44 43 43 43 44 44 44 45 45 45 46 46 46 46 46 46 46
46 45 45 46 44 43 44 43 42 41 39 37 38 39 39 39 40 40 40 40 41 41 41 43 43 44 45 45 45 46 46 45 45 45 46 46 46 46 47 47 48 49 49 48
47 46 47 47 43 43 43 43 42 41 40 40 40 41 41 41 42 42 41 41 41 42 43 44 44 45 46 46 46 47 47 47 47 47 47 47 48 48 48 49 49 50 50 50
48 47 48 45 42 42 42 42 43 42 41 42 42 42 42 42 43 43 43 42 42 43 44 45 46 47 48 48 48 49 49 49 49 49 50 50 50 50 50 51 51 51 51 51
47 48 47 45 42 41 42 42 41 42 42 43 43 43 43 43 43 44 44 43 43 44 45 46 47 48 49 49 49 50 50 51 51 51 51 51 52 52 52 52 52 52 52 52
46 47 46 44 43 42 42 43 41 41 42 42 42 43 42 43 44 44 45 44 44 45 45 46 47 48 49 49 50 50 50 51 51 51 51 52 52 53 52 52 53 53 52 52
44 45 45 43 42 41 41 41 40 40 40 41 41 42 43 43 44 45 46 46 46 46 46 47 47 48 48 48 48 48 49 50 50 50 50 51 51 52 52 52 52 52 52 52
43 44 43 41 41 41 40 40 40 40 40 41 41 42 43 44 44 45 46 47 47 47 46 46 47 47 47 48 47 48 49 49 49 49 49 49 50 50 51 51 51 51 52 52
41 41 41 41 41 41 40 40 40 39 39 40 41 41 42 43 44 44 45 46 47 47 46 46 46 46 47 47 48 48 48 49 49 49 49 48 49 49 50 50 50 50 51 51
38 38 39 40 40 40 41 41 41 40 40 39 40 40 41 42 43 43 44 44 45 45 45 45 45 46 46 47 48 48 48 48 48 48 48 47 47 48 49 49 49 49 49 49
35 35 36 37 38 39 39 39 39 39 39 40 41 41 41 41 41 42 42 43 43 44 44 44 44 45 45 46 47 47 47 47 47 48 48 48 47 47 48 48 48 48 48 49
31 32 34 35 36 36 36 37 37 37 38 38 38 39 40 40 41 41 42 42 43 43 44 44 44 44 45 45 45 45 45 46 46 47 47 47 47 47 47 47 47 47 47 47
32 32 33 34 35 35 36 36 36 36 36 36 36 37 38 38 39 40 41 42 42 43 43 44 43 44 44 44 44 44 44 44 45 45 45 45 45 46 46 45 45 45 46 46
33 34 34 34 34 35 35 35 35 35 36 36 37 37 38 38 39 40 41 42 42 42 43 43 43 43 43 44 44 44 44 44 44 44 44 44 44 45 45 45 45 44 45 46
32 33 33 33 32 33 34 35 36 36 36 37 37 37 38 39 39 40 40 40 41 41 41 42 42 42 42 43 43 43 42 42 42 42 42 42 42 43 44 44 44 44 44 45
31 32 32 32 32 33 34 35 36 36 37 37 37 38 39 39 39 39 39 40 40 39 39 40 40 41 41 41 41 41 41 41 41 41 41 41 41 41 42 43 44 44 44 43
29 30 31 31 32 32 33 34 34 35 36 37 38 38 38 38 39 39 39 39 39 39 39 39 39 40 40 40 40 39 39 39 39 39 39 40 40 40 41 42 42 42 41 41
28 28 29 30 31 32 33 33 34 35 36 36 37 37 37 38 39 39 39 39 39 38 38 38 39 39 39 39 39 39 39 38 38 38 39 39 39 39 40 40 40 40 39 39
28 29 29 29 30 30 30 31 32 33 34 34 35 35 37 38 38 38 38 38 38 38 37 38 38 38 38 38 39 39 39 38 38 38 39 39 39 39 38 38 38 38 38 38
26 28 28 28 29 29 29 30 31 31 31 32 33 33 34 35 35 35 35 36 36 37 37 37 37 37 37 37 37 37 37 37 37 38 38 38 38 37 37 36 36 36 35 35
25 26 27 27 27 28 29 29 30 30 30 30 31 31 31 31 31 32 33 33 33 34 34 35 35 35 35 35 35 35 35 35 36 36 36 35 35 35 35 34 34 33 33 32
24 24 25 26 26 27 28 28 29 29 29 30 30 30 30 30 30 30 30 30 30 31 32 32 33 33 33 33 33 33 33 33 33 33 33 33 33 32 32 32 31 31 31 31
22 23 24 25 26 26 27 28 28 29 29 28 28 28 28 28 28 28 27 27 28 28 29 30 30 30 30 30 30 30 30 30 31 31 31 31 30 30 29 29 29 29 29 30
22 23 24 24 25 25 25 26 27 27 27 28 27 27 27 26 26 26 25 25 26 26 26 27 27 27 28 28 28 29 29 29 29 29 29 28 28 27 27 27 27 27 28 28
22 23 23 23 23 23 24 25 25 25 25 25 25 25 25 25 24 24 24 24 25 25 25 25 25 25 25 26 26 27 27 27 27 27 26 25 25 25 25 25 25 25 25 26
20 21 21 21 21 21 21 22 22 22 23 23 23 23 23 23 23 23 23 23 23 23 23 23 23 23 23 24 24 24 24 24 24 23 23 23 23 23 23 23 23 23 23 23
19 19 19 19 19 19 19 19 19 20 20 21 21 21 21 21 22 22 22 21 21 21 20 20 21 21 21 21 21 22 22 22 22 21 21 21 21 21 20 20 20 20 20 19
Wind_Direction
260 261 261 260 259 259 259 259 261 261 261 262 261 258 257 255 254 254 253 254 255 255 255 256 258 260 261 263 265 265 265 266 267 266 265 265 264 264 263 263 263 264 264 264
260 260 260 259 258 258 257 258 259 260 260 260 260 259 258 257 256 256 255 255 256 256 257 257 258 260 262 264 265 265 265 266 267 266 265 265 264 264 264 264 264 265 266 265
259 260 260 259 258 258 258 258 259 260 260 260 260 260 259 258 258 256 256 256 257 257 258 260 260 262 263 263 264 265 265 266 267 268 267 267 267 266 265 264 265 266 266 267
259 258 257 259 259 258 259 259 258 259 259 260 261 260 260 259 259 258 258 257 258 258 259 261 262 263 263 264 264 265 266 267 268 269 268 268 267 266 266 265 266 266 267 267
258 259 259 259 260 259 260 260 260 261 260 260 260 260 260 261 261 260 259 259 260 260 261 261 262 263 264 265 266 266 267 268 268 269 268 268 267 266 266 266 267 267 267 267
258 259 259 260 260 261 261 261 261 262 261 261 260 260 259 260 261 261 260 260 260 261 261 261 262 263 264 264 265 266 267 268 268 269 270 269 268 267 266 266 267 268 268 268
256 257 258 259 260 261 261 262 262 262 262 262 261 261 260 260 261 261 261 261 261 262 262 262 263 264 265 265 265 266 266 268 269 270 270 270 269 268 267 267 267 267 268 267
256 256 257 259 260 260 262 262 263 263 263 262 261 262 262 261 262 262 262 261 261 262 263 263 264 265 266 266 266 267 267 268 269 270 271 271 270 269 267 267 267 268 268 268
254 257 258 258 259 261 261 263 263 264 263 262 261 262 262 263 263 263 263 262 262 262 263 263 264 265 266 266 266 268 268 268 269 270 271 272 271 269 268 267 268 268 269 268
255 256 257 258 259 261 263 263 263 263 263 262 262 262 262 263 264 264 264 264 262 262 262 263 264 265 265 267 267 268 269 270 270 270 271 272 272 271 270 269 269 269 269 269
257 257 257 257 260 261 262 263 262 261 262 263 263 263 264 265 265 265 264 263 262 262 263 263 265 266 267 268 269 269 270 270 271 271 272 272 272 272 271 270 270 270 270 271
256 256 258 258 258 259 260 261 262 263 264 264 264 265 266 266 267 266 264 263 263 263 264 265 267 268 268 269 270 270 271 271 272 272 272 273 273 272 271 272 271 272 272 273
260 259 260 259 258 259 259 260 261 262 263 264 265 266 266 267 268 267 266 264 263 263 265 266 268 268 269 269 270 271 271 271 272 272 273 274 273 272 271 270 270 272 273 274
263 263 263 261 259 258 259 259 260 262 263 264 265 266 267 268 268 268 267 266 265 265 266 267 268 268 269 269 269 270 271 272 272 273 273 273 273 273 272 271 271 272 273 275
262 263 263 261 260 259 260 260 261 262 263 264 265 265 266 267 267 268 267 266 266 266 266 266 267 268 268 269 269 271 272 272 272 273 273 274 274 274 274 273 273 274 275 275
262 262 262 261 261 261 262 262 262 262 263 264 265 266 268 269 269 269 268 266 266 266 267 267 267 267 268 269 269 270 271 272 273 273 274 275 276 276 275 275 276 276 275 275
263 263 263 262 263 263 263 263 264 265 265 266 267 268 269 270 270 270 269 267 267 266 266 267 268 268 268 268 269 270 271 272 273 274 275 276 277 277 277 276 277 276 276 275
265 266 267 267 267 267 267 267 267 267 268 269 270 270 271 272 272 271 269 267 267 267 267 268 268 268 269 269 269 270 271 272 273 274 275 277 278 278 278 278 277 276 275 275
270 270 270 271 270 269 269 269 269 270 271 272 272 273 274 275 274 272 269 267 267 268 269 269 269 270 270 269 269 270 271 272 273 275 276 277 278 278 279 278 277 276 276 275
272 271 271 272 272 270 269 269 270 271 272 273 273 275 275 276 276 273 270 269 269 270 270 270 270 271 271 271 271 271 272 273 274 276 277 277 278 278 278 278 277 276 275 274
276 274 273 273 272 270 270 270 270 271 272 274 275 275 275 275 275 273 272 270 269 269 269 269 270 270 271 270 270 271 272 274 275 276 277 278 278 277 277 277 276 275 274 274
280 277 277 277 274 271 270 271 271 272 273 274 275 275 275 275 275 274 274 271 269 269 269 269 269 270 270 270 270 272 273 274 275 277 278 278 277 276 276 276 275 275 274 275
282 280 279 278 275 273 271 271 272 273 274 275 276 276 275 275 274 273 273 271 271 271 271 270 270 270 270 270 271 272 273 275 277 278 278 277 276 275 274 274 274 275 276 276
284 283 282 280 277 274 273 272 272 272 273 275 276 275 275 274 274 273 272 271 272 272 272 271 271 271 271 271 273 274 275 277 278 278 278 277 276 275 274 273 274 276 277 277
287 286 285 282 279 276 275 274 273 273 273 274 274 274 274 273 273 272 272 272 272 272 271 271 272 273 273 275 275 276 277 278 278 278 278 276 275 274 275 275 276 278 279 279
289 289 287 285 282 280 278 277 275 274 273 273 274 274 274 273 273 273 272 272 272 272 271 271 272 274 276 277 277 277 277 277 277 277 276 275 276 277 278 278 278 279 280 280
292 292 289 286 285 284 282 281 279 277 276 276 276 276 276 276 275 274 272 272 271 271 271 272 274 276 277 277 276 276 276 275 276 275 275 276 276 278 280 280 280 281 281 281
Height
5580 5582 5583 5584 5586 5587 5587 5588 5590 5593 5595 5598 5597 5597 5599 5601 5602 5604 5606 5608 5610 5612 5613 5615 5616 5617 5619 5620 5621 5622 5623 5624 5625 5625 5626 5626 5627 5628 5629 5630 5631 5632 5633 5635
5568 5570 5570 5571 5574 5575 5576 5577 5579 5581 5584 5586 5586 5587 5588 5590 5592 5593 5595 5597 5599 5600 5602 5604 5605 5606 5607 5608 5609 5610 5611 5611 5612 5613 5613 5613 5614 5615 5616 5617 5618 5619 5619 5621
5555 5557 5556 5558 5564 5564 5565 5567 5569 5570 5574 5574 5575 5576 5577 5579 5580 5582 5584 5585 5587 5589 5590 5591 5593 5594 5595 5596 5596 5597 5598 5598 5599 5599 5599 5600 5600 5601 5602 5603 5604 5605 5606 5607
5541 5543 5543 5551 5551 5553 5554 5556 5557 5559 5561 5562 5563 5564 5566 5567 5568 5570 5572 5573 5575 5576 5577 5578 5579 5580 5581 5582 5583 5583 5584 5585 5585 5585 5585 5585 5586 5586 5587 5588 5589 5590 5591 5592
5528 5529 5531 5537 5539 5541 5542 5544 5546 5547 5548 5550 5551 5552 5554 5555 5556 5558 5560 5561 5562 5563 5565 5566 5566 5567 5567 5568 5568 5569 5570 5570 5571 5570 5570 5571 5571 5572 5573 5574 5574 5575 5576 5577
5516 5517 5520 5526 5527 5528 5530 5532 5535 5535 5536 5537 5538 5540 5543 5543 5544 5545 5547 5548 5549 5550 5552 5553 5553 5553 5554 5554 5555 5555 5556 5556 5556 5556 5556 5556 5556 5557 5557 5559 5560 5560 5561 5562
5504 5505 5508 5513 5515 5516 5519 5522 5523 5523 5524 5525 5526 5528 5530 5531 5532 5533 5534 5535 5536 5537 5538 5539 5540 5540 5541 5541 5542 5542 5542 5542 5542 5542 5541 5541 5541 5542 5543 5544 5545 5545 5546 5547
5493 5494 5500 5502 5503 5505 5507 5509 5510 5511 5512 5513 5515 5516 5517 5518 5519 5520 5521 5522 5523 5524 5525 5526 5527 5527 5527 5528 5529 5529 5529 5529 5528 5528 5527 5527 5527 5527 5528 5529 5530 5530 5531 5531
5483 5486 5488 5489 5491 5492 5494 5496 5498 5499 5501 5502 5503 5504 5505 5506 5507 5508 5508 5509 5510 5511 5512 5513 5514 5514 5514 5515 5515 5515 5515 5515 5514 5514 5514 5513 5513 5513 5513 5514 5514 5515 5515 5516
5472 5474 5476 5478 5479 5481 5483 5484 5486 5488 5489 5490 5491 5492 5493 5494 5495 5495 5496 5496 5497 5498 5499 5500 5501 5501 5501 5501 5501 5501 5501 5501 5501 5501 5500 5499 5499 5499 5499 5499 5499 5500 5500 5501
5461 5464 5465 5467 5469 5470 5472 5473 5475 5476 5477 5478 5479 5480 5481 5481 5482 5483 5483 5484 5484 5485 5486 5487 5487 5488 5488 5488 5488 5488 5488 5487 5487 5487 5486 5486 5485 5485 5485 5485 5485 5485 5486 5486
5452 5454 5455 5457 5458 5459 5461 5462 5463 5464 5465 5466 5467 5468 5468 5469 5470 5470 5470 5471 5471 5472 5473 5474 5474 5475 5475 5474 5474 5474 5474 5474 5473 5473 5472 5472 5471 5471 5471 5471 5471 5471 5471 5471
5442 5444 5445 5446 5448 5449 5450 5451 5452 5453 5454 5455 5456 5456 5457 5457 5458 5458 5458 5458 5459 5460 5461 5461 5462 5462 5462 5461 5461 5461 5461 5461 5460 5460 5459 5458 5458 5457 5458 5458 5458 5457 5457 5456
5433 5434 5435 5436 5437 5438 5439 5440 5441 5443 5443 5444 5445 5445 5445 5446 5446 5446 5446 5446 5447 5447 5448 5448 5449 5449 5449 5449 5449 5448 5448 5448 5447 5447 5446 5445 5445 5444 5444 5444 5445 5445 5444 5442
5424 5424 5425 5426 5427 5428 5429 5430 5431 5432 5433 5433 5434 5434 5434 5434 5434 5434 5434 5434 5434 5435 5435 5436 5436 5437 5436 5436 5436 5436 5436 5435 5434 5434 5433 5433 5432 5431 5431 5431 5431 5431 5430 5429
5414 5415 5416 5417 5418 5419 5419 5420 5421 5422 5422 5422 5423 5423 5423 5422 5422 5422 5422 5422 5422 5423 5423 5423 5424 5424 5424 5424 5424 5424 5424 5423 5422 5422 5421 5421 5420 5419 5418 5418 5417 5417 5416 5416
5405 5406 5407 5408 5408 5409 5409 5410 5410 5411 5411 5411 5411 5411 5411 5410 5410 5410 5410 5410 5410 5411 5411 5411 5412 5412 5412 5412 5412 5412 5412 5411 5411 5410 5409 5408 5407 5406 5405 5405 5404 5403 5403 5402
5397 5397 5398 5398 5399 5399 5399 5400 5400 5400 5400 5400 5400 5400 5399 5399 5399 5399 5399 5399 5399 5400 5399 5399 5399 5399 5399 5399 5399 5399 5399 5400 5399 5399 5398 5397 5396 5394 5393 5392 5391 5391 5390 5389
5389 5389 5389 5389 5389 5389 5390 5390 5390 5390 5390 5389 5389 5389 5388 5388 5387 5387 5387 5387 5388 5388 5388 5387 5387 5387 5387 5387 5387 5387 5387 5387 5387 5387 5386 5385 5384 5383 5381 5380 5379 5378 5377 5377
5381 5381 5381 5380 5380 5380 5380 5380 5380 5380 5380 5379 5379 5379 5378 5377 5376 5376 5376 5376 5376 5376 5376 5376 5376 5376 5376 5376 5375 5375 5375 5375 5375 5375 5374 5373 5372 5371 5370 5369 5368 5367 5366 5365
5373 5372 5372 5371 5371 5371 5371 5371 5371 5371 5370 5370 5369 5369 5368 5367 5366 5366 5365 5366 5366 5365 5365 5365 5365 5365 5364 5364 5364 5364 5364 5364 5363 5363 5362 5361 5360 5359 5358 5357 5356 5356 5355 5354
5365 5364 5363 5363 5362 5362 5361 5361 5361 5361 5361 5360 5360 5359 5358 5358 5357 5356 5356 5355 5355 5354 5354 5354 5354 5353 5353 5353 5353 5353 5353 5353 5352 5352 5351 5350 5349 5348 5347 5347 5346 5345 5344 5344
5357 5356 5355 5354 5354 5353 5353 5352 5352 5351 5351 5351 5350 5349 5349 5348 5347 5347 5347 5346 5345 5345 5344 5344 5344 5343 5343 5343 5343 5343 5343 5343 5342 5341 5340 5340 5339 5338 5337 5337 5336 5335 5335 5334
5350 5349 5348 5346 5345 5345 5344 5344 5343 5343 5342 5342 5341 5340 5340 5339 5339 5338 5337 5337 5337 5336 5335 5335 5335 5334 5334 5334 5334 5334 5334 5333 5332 5332 5331 5330 5329 5328 5328 5327 5327 5326 5325 5325
5343 5342 5340 5339 5338 5337 5336 5336 5335 5334 5334 5333 5333 5332 5331 5330 5330 5330 5329 5329 5329 5328 5328 5327 5326 5326 5325 5325 5325 5324 5324 5324 5323 5322 5322 5321 5321 5320 5319 5319 5318 5318 5317 5316
5336 5334 5333 5332 5330 5329 5329 5328 5327 5326 5326 5325 5325 5324 5323 5322 5322 5322 5321 5321 5321 5320 5320 5319 5319 5318 5317 5317 5316 5316 5316 5315 5315 5314 5314 5313 5313 5312 5312 5311 5310 5310 5309 5308
5330 5328 5326 5325 5324 5323 5322 5321 5320 5319 5318 5318 5317 5317 5316 5315 5315 5314 5314 5314 5313 5313 5313 5312 5312 5311 5310 5310 5309 5309 5308 5308 5307 5307 5307 5306 5306 5305 5305 5304 5303 5302 5302 5301